Погода в Лаукуве

Погода в Лаукуве : погода сейчас, прогноз погоды и архив. Всё, что Вы хотите узнать о погоде в Лаукуве!

Поиск расширенной информации на нашем сайте:

Другие новости

Новости СМИ2

Главная страница сайта

Новости сайта

02.10.2013

Напоминаем, что на нашем новом сайте вы можете получить высокодетализированные прогнозы погоды по пунктам России, СНГ и мира (включающие важные для авиации метеовеличины, такие как направление и скорость ветра, видимость, явления погоды, количество и форма облачности, нижняя и верхняя граница облачности), а также ознакомиться с разнообразными материалами по авиационной метеорологии и подборкой полезных ссылок на эту тему.

Сайт Метеоцентр.Азия посвящён разработке технологий оптимизации авиаметеорологического обслуживания, включая проектирование и перспективное создание нескольких автоматизированных авиаметеорологических систем:
- система выпуска высокодетальных прогностических карт явлений погоды для нижнего воздушного пространства по России и ближнему зарубежью;
- система верификации прогнозов TAF (выпускаемых синоптиками официальных АМСГ РФ и ближнего зарубежья) и AUTOTAF (выпускаемых сайтом Метеоцентр.Азия) - выявление ошибок, онлайн-сопоставление с фактической погодой METAR, автоматическое внесение коррективов в прогнозы при резком отклонении фактической погоды от прогноза, подсчёт оправдываемости прогнозов по элементам и в целом;
- система обработки, анализа и отображения авиаметеорологической информации для применения провайдерами метеорологической информации.

Рекомендуем: монтаж система вентиляции торгового центра

Погода в Лаукуве - сегодня

Время (UTC), дата Ветер
(°,м/с) 
Видим.   Явления Облачность Т
(°С)
Тd
(°С)
f(%) Тe
(°С)
Pmin
(гПа)
dP
(гПа)
Po
(мм)
O2
(г/м3)
Тmin Tmax R s Состояние
почвы
03 25.05.17 тихо () -2{04}  20000 м    ясно 
+5.4 +4 91 +5  1014.8  746  293           
06 25.05.17 270 (З) 3-5{05}  19000 м    3/0 средняя, верхняя 
[Ac trans|Ci fib]
+12.5 +8.2 75 +12  1014.5  0.2  746  285  +4.9        сухая 
09 25.05.17 250 (З) 4-7{07}  20000 м    8/8 900 м 
[Cu med, cong]
+18.1 +11.1 64 +21  1014.4  0.3  746  279           
12 25.05.17 260 (З) 6-11{11}  19000 м    4/3 1000 м верхняя 
[Cu med, cong|Ci sp]
+17.1 +10.7 66 +19  1014.7  0.2  746  281           
15 25.05.17 280 (З) 6-11{12}  20000 м    5/3 1000 м верхняя 
[Cu med, cong|Ci fib]
+17 +8.6 58 +17  1015.1  0.4  747  281           
18 25.05.17 280 (З) 5-9{11}  19000 м    6/0 средняя, верхняя 
[Ac trans|Ci fib]
+13.7 +7.1 64 +13  1015.2  -0.2  746  284    +18.9       
21 25.05.17 260 (З) 4-5{09}  20000 м    9/3 240 м средняя, верхняя 
[St|Ac trans|Ci sp]
+9.2 +7.7 90 +8  1015.5  746  289           
00 26.05.17 270 (З) 2-4{06}  18000 м  слаб. дождь  10/10 240 м 
[Frnb|Ns]
+9.3 +8.2 93 +9  1015.4  746  289      0.0     
03 26.05.17 270 (З) 1-2{04}  10 км  {дождь}  10/10 210 м 
[St]
+9.4 +8.8 96 +10  1015.4  746  288           
06 26.05.17 тихо () -0{04}  15000 м  в посл. час ливневой дождь  10/6 1000 м средняя 
[Sc|Ac trans]
+10.3 +9.3 94 +11  1016.1  0.7  747  288  +9    0.0    сухая 
09 26.05.17 350 (С) 2-4{04}  20000 м    8/4 1000 м средняя 
[Cu med, cong|Ac trans]
+15.6 +7.4 58 +16  1016.8  748  283           
12 26.05.17 330 (СЗ) 2-5{05}  20000 м    9/8 1000 м средняя 
[Cu Sc|Ac trans]
+16.2 +6.7 53 +17  1017.3  0.6  748  283           
18 26.05.17 330 (СЗ) 2-4{08}  19000 м    5/4 1000 м верхняя 
[Cu Sc|Ci fib]
+15.7 +7.4 58 +16  1018.2  0.8  749  283    +18.1       
06 27.05.17 340 (С) 2-4{06}  19000 м    3/0 верхняя 
[Ci sp]
+11.7 +5.6 66 +12  1023.4  1.1  752  289  +4.6        сухая 
18 27.05.17 260 (З) 3-5{10}  20000 м    5/0 верхняя 
[Ci sp]
+16.7 +2.3 38 +17  1021.3  -1  751  284    +20.8       
06 28.05.17 250 (З) 3-5{06}  20000 м    5/0 средняя, верхняя 
[Ac trans|Ci fib]
+16.6 +11.7 73 +21  1020  -0.5  750  282  +11        сухая 
18 28.05.17 210 (ЮЗ) 3-5{10}  20000 м    6/0 верхняя 
[Ci sp]
+20.3 +11.2 56 +23  1014.9  -2.6  747  277    +24.2       
00 29.05.17 220 (ЮЗ) 5-8{09}  20000 м  в посл. час дождь  10/0 средняя 
[Ac As]
+18.4 +11.3 63 +22  1010.4  -2.5  743  278      0.0     
06 29.05.17 260 (З) 5-8{08}  20000 м    8/4 1000 м средняя 
[Cu med, cong|Ac und]
+16.7 +12.9 78 +23  1008.5  -0.1  742  278  +15.3    0.0    сухая 
12 29.05.17 270 (З) 6-9{10}  20000 м    10/10 600 м 
[Sc]
+18.2 +13 72 +24  1010.1  0.6  743  278           
15 29.05.17 270 (З) 4-6{09}  20000 м    10/10 800 м 
[Sc]
+17.7 +13.4 76 +24  1010.4  0.3  743  278           
18 29.05.17 280 (З) 4-7{09}  20000 м    9/8 1080 м верхняя 
[Sc|Ci sp]
+15.3 +12.4 83 +20  1010.8  0.3  743  280    +19.2       
21 29.05.17 300 (СЗ) 3-6{07}  20000 м    10/10 300 м 
[St]
+13.5 +12.2 92 +18  1011.7  0.7  744  283           
00 30.05.17 320 (СЗ) 2-4{06}  20000 м    4/0 верхняя 
[Ci fib]
+8.8 +8 95 +9  1012.2  0.2  744  289           
03 30.05.17 330 (СЗ) 1-2{04}  20000 м    3/0 верхняя 
[Ci fib]
+6 +5.6 97 +7  1012.5  0.1  744  292           
Время (UTC), дата Ветер
(°,м/с) 
Видим.   Явления Облачность Т
(°С)
Тd
(°С)
f(%) Тe
(°С)
Pmin
(гПа)
dP
(гПа)
Po
(мм)
O2
(г/м3)
Тmin Tmax R s Состояние
почвы

Для получения пояснительной информации подведите курсор к названию столбца.

ПОГОДА в Лаукуве - архив

Всё, что Вы хотите узнать о погоде в Лаукуве - удобно и подробно!

Выберите нужную дату (начиная с 1 января 2015* года) и нажмите кнопку "Найти".
Будут отображены архивные сводки погоды по пункту Лаукува, начиная с указанной даты.


Отображать данные в формате CSV (для использования в таблицах Excel)


Внимание! Наш архив погоды предназначен исключительно для личного некоммерческого использования в познавательных целях. Если Вам необходимы официальные справки о состоянии погоды (для производственных, юридических, коммерческих и т.п. целей), обращайтесь в органы Росгидромета.

*Примечание: данная дата относится к архиву по метеостанциям СССР (Россия, СНГ, Балтия).
Архив по метеостанциям Зарубежной Европы и Азии (кроме Китая) хранится 10 дней, по другим регионам земного шара (Китай, Африка, Америка, Австралия, Океания) - 1 день.

Лаукува - район местоположения метеостанции


Название, широта, долгота, высота метеостанции:
Лаукува 55.6°ш. 22.2°д. 166 м над ур. моря [Литва]

Дополнительная информация

В oтличие oт бoльшинства пoгoдных сайтoв мы публикуем пoдрoбную метеoинфoрмацию в детальнoм прoфессиoнальнoм фoрмате.

Характеристики температуры и влажнoсти вoздуха измеряются на высoте 2 м в тени вдали oт зданий и деревьев.
Скoрoсть ветра измеряется на высoте 10 м (на урoвне рoста челoвека скoрoсть ветра ниже в 1.5-2 раза). Если метеoстанция нахoдится в гoрoде или в лесу, тo скoрoсть ветра занижена на 2-4 м/с пo сравнению с oткрытым местoм. Скoрoсть ветра над акватoриями крупных рек и oзёр, а также на вершинах хoлмoв на 2-5 м/с выше, чем в oбычных услoвиях.
Атмoсфернoе давление в разных тoчках местнoсти мoжет значительнo oтличаться oт давления на метеoстанции, в зависимoсти oт услoвий рельефа (при пoдъёме на 10 м давление пoнижается примернo на 1 мм рт.ст.).